www.pogodaiklimat.ru

Погода и климат >> Архив погоды >> Австралия >> Квинсленд >> Нормантон


ПОГОДА в Нормантоне

  • Прогноз погоды в Нормантоне
  • Монитор погоды в Нормантоне

АРХИВ ПОГОДЫ в Нормантоне

Время (UTC), дата Ветер
(напр.,м/с)
 
Видим.   Явления Облачность Т
(С)
Тd
(С)
f
(%)
Тe
(С)
Тes
(С)
Комфортность P
(гПа)
Po
(гПа)
Тmin
(С)
Tmax
(С)
R
(мм)
R24
(мм)
S
(см)
20 16.07 Ю 4 н/о н/о +14.2 +1.8 43 +13 +13 1016.4 1014.2
23 16.07 ЮВ 4 н/о н/о +18.0 +2.3 35 +18 +18 1018.3 1016.1
05 17.07 ЮВ 3 н/о н/о +27.5 -1.4 15 +25 +25 комфорт 1014.7 1012.5
08 17.07 Ю 3 н/о н/о +26.5 -2.2 15 +24 +24 комфорт 1014.7 1012.5
11 17.07 Ю 3 н/о н/о +20.7 +0.5 26 +21 +21 комфорт 1016.4 1014.2
14 17.07 Ю 4 н/о н/о +18.4 -1.4 26 +18 +18 1016.2 1014.0 +28.9
17 17.07 Ю 6 н/о н/о +17.4 -1.8 27 +17 +17 1015.3 1013.1
20 17.07 ЮВ 4 н/о н/о +14.6 -1.1 34 +14 +14 1016.0 1013.8
23 17.07 ЮВ 4 н/о н/о +17.9 +0.1 30 +18 +18 1018.6 1016.4
02 18.07 ЮВ 3 н/о н/о +25.4 +0.8 20 +24 +24 комфорт 1017.2 1015.0 +12.9
05 18.07 Ю 4 н/о н/о +28.6 -2.5 13 +26 +26 жарко 1014.4 1012.2
08 18.07 Ю 4 н/о н/о +27.6 -3.3 13 +25 +25 комфорт 1014.2 1012.0
11 18.07 Ю 4 н/о н/о +20.8 -1.7 22 +21 +21 комфорт 1015.6 1013.4
14 18.07 Ю 5 н/о н/о +18.7 -2.3 24 +18 +18 1016.0 1013.8 +29.7
17 18.07 Ю 5 н/о н/о +16.7 -3.4 25 +16 +16 1015.8 1013.6
20 18.07 Ю 4 н/о н/о +15.0 -3.3 28 +14 +14 1016.1 1013.9
23 18.07 В 4 н/о н/о +17.5 +2.7 37 +17 +17 1017.9 1015.7
02 19.07 С 3 н/о н/о +25.5 +10.9 40 +27 +27 жарко 1016.9 1014.7 +13.8
05 19.07 СВ 3 н/о н/о +28.7 +8.9 29 +28 +28 жарко 1014.0 1011.8
08 19.07 ЮВ 3 н/о н/о +27.6 +5.8 25 +27 +27 жарко 1014.1 1011.9
11 19.07 З 2 н/о н/о +19.4 +12.7 65 +22 +22 комфорт 1015.9 1013.7
14 19.07 Ю 5 н/о н/о +18.5 -1.9 25 +18 +18 1016.2 1014.0 +30.0
17 19.07 Ю 5 н/о н/о +15.9 -3.0 27 +15 +15 1015.6 1013.4
20 19.07 Ю 5 н/о н/о +12.9 -2.6 34 +11 +11 1016.3 1014.1
23 19.07 В 4 н/о н/о +17.7 +5.9 46 +18 +18 1018.0 1015.8
02 20.07 В 3 н/о н/о +26.6 +8.6 32 +27 +27 жарко 1016.9 1014.7 +12.6
05 20.07 В 3 н/о н/о +28.8 +0.5 16 +26 +26 жарко 1014.2 1012.0
08 20.07 Ю 3 н/о н/о +27.2 -2.6 14 +25 +25 комфорт 1014.0 1011.8
11 20.07 З 2 н/о н/о +19.1 +10.6 58 +21 +21 комфорт 1015.8 1013.6
14 20.07 ЮЗ 2 н/о н/о +15.5 +12.1 80 +15 +15 1015.9 1013.7 +29.9
17 20.07 штиль 0 н/о н/о +12.9 +11.1 89 +12 +12 1015.2 1013.0
20 20.07 В 3 н/о н/о +12.1 +5.5 64 +11 +11 1015.4 1013.2
23 20.07 СВ 3 н/о н/о +18.5 +7.3 48 +19 +19 1017.2 1015.0
02 21.07 СВ 3 н/о н/о +25.8 +6.4 29 +25 +25 комфорт 1015.6 1013.4 +10.9
05 21.07 Ю 3 н/о н/о +29.0 -1.2 14 +26 +26 жарко 1012.4 1010.2
08 21.07 СЗ 5 н/о н/о +25.4 +9.3 36 +26 +26 жарко 1012.6 1010.4
11 21.07 З 2 н/о н/о +19.1 +11.9 63 +21 +21 комфорт 1014.2 1012.0
14 21.07 ЮЗ 4 н/о н/о +16.7 +15.1 90 +16 +16 1014.7 1012.5 +29.7
17 21.07 ЮЗ 2 н/о н/о +15.1 +13.3 89 +15 +15 1013.6 1011.4
20 21.07 Ю 4 н/о н/о +14.5 +5.8 56 +14 +14 1014.2 1012.0
23 21.07 В 3 н/о н/о +18.9 +7.0 46 +20 +20 1015.8 1013.6
02 22.07 В 4 н/о н/о +27.9 +9.2 31 +28 +28 жарко 1014.8 1012.6 +13.6
05 22.07 ЮВ 3 н/о н/о +30.2 +4.8 20 +28 +28 жарко 1012.0 1009.8
08 22.07 Ю 4 н/о н/о +28.9 -0.3 15 +26 +26 жарко 1012.5 1010.3
11 22.07 Ю 3 н/о н/о +23.0 +0.2 22 +22 +22 комфорт 1014.3 1012.1
14 22.07 ЮЗ 2 н/о н/о +16.9 +6.1 49 +17 +17 1014.8 1012.6 +31.3
17 22.07 Ю 5 н/о н/о +17.8 -0.9 28 +17 +17 1014.4 1012.2
20 22.07 Ю 4 н/о н/о +15.3 -0.1 35 +15 +15 1015.7 1013.5
23 22.07 В 3 н/о н/о +20.7 +6.3 39 +22 +22 комфорт 1017.7 1015.5
02 23.07 ЮВ 5 н/о н/о +28.3 +7.0 26 +28 +28 жарко 1016.5 1014.3 +15.2
05 23.07 В 5 н/о н/о +30.4 +6.3 22 +29 +29 жарко 1013.9 1011.7
08 23.07 Ю 5 н/о н/о +29.3 +6.7 24 +28 +28 жарко 1014.1 1011.9
11 23.07 Ю 3 н/о н/о +22.8 +6.6 35 +23 +23 комфорт 1015.8 1013.6
14 23.07 Ю 5 н/о 3/0 2000 м
[]
+22.6 +6.4 35 +23 +23 комфорт 1015.7 1013.5
17 23.07 Ю 4 н/о н/о +19.8 +5.8 40 +20 +20 1015.8 1013.6

 

Местоположение метеостанции Нормантон (Квинсленд, Австралия): широта -17.68 долгота 141.07 высота над уровнем моря 19 м.

В архиве по умолчанию представлена погода в Нормантоне за последнюю неделю. Архивные данные за месяц целиком и за предыдущие месяцы, начиная с января 2011 года, Вы можете получить, выбрав интересующий диапазон дат из раскрывающегося списка и нажав кнопку "Ввод!".


*Определитесь, кто Вы:
робот инопланетянин человек

Внимание! Время в таблицах - всемирное. Для получения местного времени необходимо прибавить поправку, которая равна 10 ч.

Смотрите также архив погоды в соседних городах и на ближайших метеорологических станциях:

Погода в Беркетауне (Квинсленд, Австралия) (163 км)
Погода на Острове Морнингтон (Квинсленд, Австралия) (232 км)
Погода в Кованьяме (Квинсленд, Австралия) (255 км)
Погода в Джорджтауне (Квинсленд, Австралия) (269 км)
Погода на Руднике Century Mine (Квинсленд, Австралия) (277 км)
Погода на Озере Джулиус (Квинсленд, Австралия) (306 км)
Погода в Клонкарри (Квинсленд, Австралия) (338 км)
Погода в Джулия Крик (Квинсленд, Австралия) (340 км)
Погода в Палмервилле (Квинсленд, Австралия) (370 км)
Погода в Нью Мэй Даун (Квинсленд, Австралия) (371 км)

Пояснения к столбцам:

Ветер - указаны скорость ветра в м/с - средняя за 10 мин, порывы в срок и между сроками (в фигурных скобках) и направление, откуда дует ветер: С - северный, СВ - северо-восточный, В - восточный, ЮВ - юго-восточный, Ю - южный, ЮЗ - юго-западный, З - западный, СЗ - северо-западный.
Видимость - горизонтальная дальность видимости в метрах или километрах. При видимости от 1 до 10 км при отсутствии осадков обычно наблюдается дымка, при ухудшении видимости до 1 км и менее - туман. В сухую погоду видимость может ухудшаться дымом, пылью или мглою.
Явления - указаны атмосферные явления, наблюдавшиеся в срок или в последний час перед сроком; фигурными скобками обозначены явления, наблюдавшиеся между сроками (за 1-3 часа до срока); квадратными скобками обозначены град или гололедные отложения с указанием их диаметра в мм.
Облачность - указаны через наклонную черту общая и нижняя облачность в баллах и высота нижней границы облаков в метрах; квадратными скобками обозначены формы облаков: Ci - перистые, Cs - перисто-слоистые, Cc - перисто-кучевые, Ac - высококучевые, As - высокослоистые, Sc - слоисто-кучевые, Ns - слоисто-дождевые, Cu - кучевые, Cb - кучево-дождевые. Подробнее классификацию облаков см. в Атласе облаков (PDF).
T - Температура воздуха - температура, измеренная на высоте 2 м над землей.
Td - Температура точки росы - температура, при понижении до которой содержащийся в воздухе водяной пар достигнет насыщения.
f - Относительная влажность воздуха - влажноcть воздуха, измеренная на высоте 2 м над землей.
Te - Эффективная температура - температура, которую ощущает одетый по сезону человек в тени. Характеристика душности погоды. При расчете учитывается влияние влажности воздуха и скорости ветра на теплоощущения человека.
Tes - Эффективная температура на солнце - температура, которую ощущает человек, с поправкой на солнечный нагрев. Характеристика знойности погоды. Зависит от высоты солнца над горизонтом, облачности и скорости ветра. Ночью, в пасмурную погоду, а также при ветре 12 м/с и более поправка равна нулю.
P - Атмосферное давление - приведенное к уровню моря атмосферное давление.
Po - Атмосферное давление - измеренное на уровне метеостанции атмосферное давление.
Tmin - Минимальная температура - минимум температуры воздуха на высоте 2 м над землей.
Tmax - Максимальная температура - максимум температуры воздуха на высоте 2 м над землей.
R - Количество осадков - Количество выпавших осадков за период времени, мм. При наведении курсора мыши на число - период времени, за который выпало указанное количество осадков.
R24 - Количество осадков - Количество выпавших осадков за 24 часа, мм.
S - Снежный покров - Высота снежного покрова, см. При наведении курсора мыши на число - состояние снежного покрова и степень покрытия местности в баллах.